Location: Unspecified
(48.2082°N, 0.0000°E)
Time: 14:27:31
(UTC+00:00)

Tiros 1 despin weight - Pass Details

Date: 26 June 2019
Orbit: 594 x 642 km, 48.2° (Epoch: 15 July)

Event Time Altitude Azimuth Distance (km) Brightness Sun altitude
Rises 21:43:20 0° 229° (SW) 2,864 ? -11.9°
Reaches altitude 10° 21:45:44 10° 222° (SW) 1,954 ? -12.1°
Maximum altitude 21:49:56 41° 153° (SSE) 878 ? -12.5°
Drops below altitude 10° 21:54:07 10° 83° (E) 1,938 ? -12.8°
Sets 21:56:29 0° 76° (ENE) 2,838 ? -13.0°
